マクノート彗星

P/2005 L1 ( McNaught )

English version
Home page
Total 6,336 html files since Dec. 4, 1995
Updated on November 12, 2005

---------------------------------------------------------------------

・ プロフィール

発見日 2005年6月2日
発見光度 16.7等
発見者 R. H. McNaught (Siding Spring)

・ 軌道要素

Epoch 2005 Dec. 16.0 TT = JDT 2453720.5
T 2005 Dec. 12.93539 TT                                 MPC
q   3.1434520            (2000.0)            P               Q
n   0.12444701     Peri.  149.51489     +0.30954196     +0.94666427
a   3.9732546      Node   138.33183     -0.89733468     +0.32195381
e   0.2088471      Incl.    7.73701     -0.31460172     +0.01313405
P   7.92

・ 星図

・ 光度変化

        m1 = 10.0 + 5 logΔ + 10.0 log r

---------------------------------------------------------------------

軌道要素はM.P.E.C. 2005-O07に掲載されたものです。
星図は StellaNavigator Ver.2.0 for Windows (アストロアーツ 編著 / アスキー出版局刊) で作成したものです。
光度グラフはComet for Windowsで作成したものです。

---------------------------------------------------------------------

Copyright(C) 1995-2008 Seiichi Yoshida (comet@aerith.net). All rights reserved.